Flight Track Log - Related Links

Times and Time Zones

All times are in EDT time to prevent confusion due to time zone crossing. See the UPS635 flight status page for this flight to view local times or setup timezone preferences in your user account.

Time Position Orientation Groundspeed Altitude Reporting Facility
EDT Latitude Longitude Course Direction KTS MPH feet Rate Location/Type
Wed 11:43:14 PM 38.7500 -90.3667 334° Northwest 154 177 1,500  Level Gateway (St. Louis) TRACON
Wed 11:44:18 PM 38.7975 -90.3961 334° Northwest 268 308 3,200 3,984 Climbing Kansas City Center
Wed 11:45:19 PM 38.8514 -90.3592 28° Northeast 261 300 9,800 4,195 Climbing Kansas City Center
Wed 11:46:21 PM 38.8219 -90.2344 107° East 368 423 11,800 3,171 Climbing Kansas City Center
Wed 11:47:22 PM 38.7622 -90.0675 115° Southeast 429 494 16,300 3,689 Climbing Kansas City Center
Wed 11:48:23 PM 38.7047 -89.9103 115° Southeast 469 540 19,300 3,148 Climbing Kansas City Center
Wed 11:49:24 PM 38.6414 -89.7417 116° Southeast 496 571 22,700 1,820 Climbing Kansas City Center
Wed 11:50:25 PM 38.5950 -89.5758 110° East 497 572 23,000 148 Climbing Kansas City Center
Wed 11:51:26 PM 38.5761 -89.4028 98° East 494 568 23,000  Level Kansas City Center
Wed 11:52:27 PM 38.5556 -89.2186 98° East 495 570 23,000  Level Kansas City Center
Wed 11:53:28 PM 38.5364 -89.0425 98° East 500 575 23,000  Level Kansas City Center
Wed 11:54:29 PM 38.5169 -88.8681 98° East 499 574 23,000  Level Kansas City Center
Wed 11:55:30 PM 38.4953 -88.6797 98° East 500 575 23,000  Level Kansas City Center
Wed 11:56:32 PM 38.4786 -88.5306 98° East 498 573 23,000  Level Kansas City Center
Wed 11:57:33 PM 38.4592 -88.3553 98° East 498 573 23,000  Level Kansas City Center
Wed 11:58:34 PM 38.4381 -88.1786 99° East 498 573 23,000  Level Kansas City Center
Wed 11:59:18 PM 38.4222 -88.0367 98° East 500 575 23,000  Level Indianapolis Center
Thu 12:00:19 AM 38.4003 -87.8608 99° East 500 575 23,000  Level Indianapolis Center
Thu 12:01:20 AM 38.3792 -87.6844 99° East 500 575 23,000  Level Indianapolis Center
Thu 12:02:21 AM 38.3575 -87.5094 99° East 500 575 23,000 -197 Level Indianapolis Center
Thu 12:03:22 AM 38.3361 -87.3422 99° East 486 559 22,600 -1,426 Descending Indianapolis Center
Thu 12:04:23 AM 38.3181 -87.1919 99° East 443 510 20,100 -2,508 Descending Indianapolis Center
Thu 12:05:24 AM 38.2986 -87.0389 99° East 431 496 17,500 -2,754 Descending Indianapolis Center
Thu 12:06:25 AM 38.2786 -86.8822 99° East 423 487 14,500 -2,459 Descending Indianapolis Center
Thu 12:07:26 AM 38.2597 -86.7444 100° East 403 464 12,500 -1,377 Descending Indianapolis Center
Thu 12:08:27 AM 38.2436 -86.6167 99° East 377 434 11,700 -820 Descending Indianapolis Center
Thu 12:14:23 AM 38.2099 -85.9877 91° East 289 333 6,800 -875 Descending FlightAware ADS-B
Thu 12:14:44 AM 38.2090 -85.9519 92° East 289 333 6,200 -1,174 Descending FlightAware ADS-B
Thu 12:15:09 AM 38.2073 -85.9110 94° East 278 320 5,900 -383 Descending FlightAware ADS-B
Thu 12:15:31 AM 38.2061 -85.8847 96° East 247 284 5,900  Level FlightAware ADS-B
Thu 12:16:16 AM 38.1690 -85.8341 163° South 260 299 5,900 -488 Level FlightAware ADS-B
Thu 12:17:34 AM 38.0776 -85.8021 165° South 254 292 4,900 -432 Descending FlightAware ADS-B
Thu 12:18:35 AM 38.0086 -85.7789 165° South 260 299 4,900  Level FlightAware ADS-B
Thu 12:19:35 AM 37.9395 -85.7551 165° South 259 298 4,900 -500 Level FlightAware ADS-B
Thu 12:20:35 AM 37.8823 -85.7113 102° East 230 265 3,900 -909 Descending FlightAware ADS-B
Thu 12:20:41 AM 37.8820 -85.7067 86° East 215 247 3,900  Level FlightAware ADS-B (KIXA)
Thu 12:21:35 AM 37.9124 -85.6700 25° Northeast 160 184 3,900  Level FlightAware ADS-B
Thu 12:22:06 AM 37.9343 -85.6668 344° North 158 182 3,900  Level FlightAware ADS-B (KIXA)
Thu 12:22:11 AM 37.9379 -85.6678 349° North 159 183 3,900  Level FlightAware ADS-B (KIXA)
Thu 12:22:34 AM 37.9546 -85.6721 345° North 161 185 3,900 -136 Level FlightAware ADS-B
Thu 12:23:39 AM 38.0012 -85.6877 346° North 161 185 3,700 -524 Descending FlightAware ADS-B
Thu 12:24:40 AM 38.0450 -85.7021 347° North 162 186 2,800 -884 Descending FlightAware ADS-B
Thu 12:25:48 AM 38.0879 -85.7162 346° North 129 148 1,800 -906 Descending FlightAware ADS-B
Thu 12:26:26 AM 38.1136 -85.7246 345° North 127 146 1,200 -947 Descending FlightAware ADS-B

Login

Don't have an account? Register now (free) for customized features, flight alerts, and more!